Miscellaneous Local Product
Issued by NWS North Platte, NE

Home | Current Version | Previous Version | Text Only | Print | Product List | Glossary On
Versions: 1 2 3 4 5 6 7 8 9 10 11 12 13 14 15 16 17 18 19 20 21 22 23 24 25 26 27 28 29 30 31 32 33 34 35 36 37 38 39 40 41 42 43 44 45 46 47 48 49 50
000
AXUS43 KLBF 200610
MISLBF


WESTERN AND NORTH CENTRAL NEBRASKA HOURLY WEATHER ROUNDUP
NATIONAL WEATHER SERVICE NORTH PLATTE NE
1200 AM CST SAT DEC 20 2014

***STATIONS NOT REPORTING VARIABLES SUCH AS SKY/WEATHER OR
PRESSURE ARE PROVIDED BY THE NEBRASKA DEPARTMENT OF
ROADS...RAWS...AND APRS NETWORKS...AND ARE NOT UNDER
NATIONAL WEATHER SERVICE QUALITY CONTROL***

...OBSERVATIONS IN AND NEAR THE EASTERN PANHANDLE OF NEBRASKA...

CITY           SKY/WX    TMP DP  RH WIND       PRES   REMARKS
PINE RIDGE     CLEAR     16  11  80 NW5       29.96R WCI   9
CHADRON        PTCLDY    15  11  83 SW6       29.96F WCI   6
ALLIANCE       PTCLDY    14  13  95 CALM      29.98R
SIDNEY         CLEAR     18  13  80 W7        30.01R WCI   9
WHITECLAY        N/A     18  14  82 SE5         N/A  WCI  11
CRESCENT LAKE    N/A     25  20  80 CALM        N/A
LISCO            N/A     18  14  84 CALM        N/A
BIG SPRINGS      N/A     22  20  92 W6          N/A  WCI  15
$$

...OBSERVATIONS IN NORTH CENTRAL NEBRASKA...

CITY           SKY/WX    TMP DP  RH WIND       PRES   REMARKS
VALENTINE      CLEAR     14  12  92 SW7       29.98F WCI   4
THEDFORD       CLEAR     25  22  87 SW6       30.01R WCI  18
AINSWORTH      CLEAR     20  17  89 W7        29.98S WCI  11
O`NEILL        FOG      N/A N/A N/A S5        30.01F VSB 1/2
BROKEN BOW     CLEAR     27  23  85 W8        30.00R WCI  19
BROWNLEE         N/A     21  16  79 S7          N/A  WCI  13
SPRINGVIEW       N/A     15  13  90 CALM        N/A
BREWSTER         N/A     21  20  98 W3          N/A
ROSE             N/A     21  21 100 MISG        N/A
SARGENT          N/A     16  15  94 CALM        N/A
COMSTOCK         N/A     20  18  91 CALM        N/A
CHAMBERS         N/A     26  26  99 CALM        N/A
EWING            N/A     28  27  97 CALM        N/A
$$

...OBSERVATIONS IN SOUTHWEST NEBRASKA AND FAR NORTHEAST COLORADO...

CITY           SKY/WX    TMP DP  RH WIND       PRES   REMARKS
WRAY           FAIR      29  25  84 SW9       30.03F WCI  20
HOLYOKE        FAIR      21  18  86 W6        30.03S WCI  14
IMPERIAL       CLEAR     29  20  69 W10       30.03S WCI  20
OGALLALA       CLEAR     19  17  95 SW3       30.02S FOG
NORTH PLATTE   CLEAR     18  15  88 NW6       30.03R FOG     WCI  10
MCCOOK         CLEAR     29  24  82 W10       30.04S WCI  20
LEXINGTON      CLEAR     23  21  95 NW6       30.03S FOG     WCI  15
PAXTON           N/A     24  22  90 W5          N/A  WCI  18
BRADY            N/A     25  22  87 CALM        N/A
GOTHENBURG       N/A     27  23  84 NW6         N/A  WCI  21
CALLAWAY         N/A     27  25  90 NW6         N/A  WCI  21
$$

...NORTH PLATTE AREA...

CITY           SKY/WX    TMP DP  RH WIND       PRES   REMARKS
AIRPORT        CLEAR     18  15  88 NW6       30.03R FOG     WCI  10
DOWNTOWN         N/A     25  22  88 CALM        N/A
$$

...SOME WEATHER OBSERVATIONS FROM AROUND THE REGION...

CITY           SKY/WX    TMP DP  RH WIND       PRES   REMARKS
DENVER         MOCLDY    32  16  51 S12       29.99S WCI  23
LARAMIE        PTCLDY    22  13  68 SW5       30.02R WCI  16
CHEYENNE       CLEAR     31  15  52 W8        29.98S WCI  23
SCOTTSBLUFF    PTCLDY    16  12  84 CALM      29.99S
RAPID CITY     CLEAR     21  16  81 CALM      29.91S
PIERRE         FOG       14  12  92 CALM      29.96S VSB 1/2
WINNER         FAIR      27  20  75 SW6       29.98R WCI  20
SIOUX FALLS    CLOUDY    31  28  89 S10       30.06F WCI  22
OMAHA          DRIZZLE   32  29  88 SE13      30.15F FOG     WCI  22
GRAND ISLAND   FOG       32  31  96 S8        30.05S VSB 1/2 WCI  25
KANSAS CITY    CLOUDY    32  31  96 SW5       30.21R FOG     WCI  27
WICHITA        CLOUDY    38  34  85 S7        30.18R WCI  33
HAYS           CLEAR     30  23  74 CALM      30.09S
LIBERAL        CLEAR     30  27  86 SW7       30.13F WCI  23
GOODLAND       MOCLDY    33  28  81 SW10      30.05S WCI  25
$$



USA.gov is the U.S. government's official web portal to all federal, state and local government web resources and services.